TIME,DELAY(SENSOR),PRES,OXYGEN,RAWTEMP,T(OPTODE),TCPHASE,FLUOR,BETA(BETA700),BETA(BETA412),BETA(BETA440),CDOM,C(CSC),ED(ED411.90),ED(ED443.80),ED(ED489.40),ED(ED554.70),LU(LU412.20),LU(LU443.80),LU(LU489.40),LU(LU555.00),COMP,TILTX,TILTY,CHECK
1340057013,5801,850.5300292968750000,181.3480072021484400,474.7218933105469000,8.6693334579467770,39.2357292175293000,51,106,101,79,74,15440,2147448009,2147794688,2147579510,2147822491,2147304722,2147454390,2147756781,2148273590,3406,6,14,20554
1340060609,5803,985.0000000000000000,219.3491058349609400,531.5092773437500000,6.8903388977050780,37.8852310180664060,51,108,102,79,76,15434,2147430912,2147799113,2147584411,2147829924,2147305435,2147446601,2147766400,2148282633,2296,6,15,26010
1340064209,5804,9.1999998092651370,226.4884033203125000,541.9844970703125000,6.5596771240234375,37.6792907714843750,51,107,102,78,76,15431,2147430409,2147801700,2147586185,2147833380,2147304649,2147444114,2147770386,2148280777,3552,6,14,11764
1340067809,5804,931.0000000000000000,231.8945007324218800,544.1987915039062000,6.4896721839904785,37.4294204711914060,51,107,101,79,77,15426,2147431652,2147799716,2147585618,2147829165,2147303771,2147446436,2147767222,2148280832,3211,6,15,3109
1340071409,5805,10.6999998092651370,231.3439025878906200,544.0272827148438000,6.4950962066650390,37.4553794860839840,51,110,104,78,77,15421,2147433682,2147800612,2147587282,2147834450,2147304804,2147446729,2147768795,2148280813,3169,6,15,8273
1340075009,5804,10.8000001907348630,231.1387939453125000,543.4016723632812000,6.5148749351501465,37.4546699523925800,51,107,103,80,76,15420,2147431561,2147799561,2147586761,2147833426,2147303881,2147447661,2147767177,2148283081,319,6,15,33782
1340078609,5804,1062.0000000000000000,230.8148040771484400,544.1384887695312000,6.4915771484375000,37.4855804443359400,50,105,104,79,76,15405,2147433709,2147802285,2147584804,2147833115,2147304374,2147449234,2147768228,2148283858,3543,6,15,55522
1340082209,5805,1043.0000000000000000,231.3995971679687500,544.2296142578125000,6.4886970520019530,37.4562988281250000,51,109,104,80,75,15417,2147433664,2147801179,2147583744,2147831168,2147304000,2147445385,2147773513,2148279360,3567,6,15,56179
1340085809,5804,10.3000001907348630,231.5086059570312500,544.1926269531250000,6.4898657798767090,37.4496498107910160,51,106,104,79,76,15413,2147433755,2147802358,2147583442,2147834404,2147307163,2147448347,2147769545,2148279350,334,6,14,22988
1340089409,5806,1079.0000000000000000,230.5941009521484400,545.2625732421875000,6.4560260772705080,37.5176506042480500,51,109,104,79,74,15415,2147432941,2147798985,2147585005,2147830180,2147304320,2147445476,2147770633,2148282377,279,6,14,63431
1340093009,5804,10.6999998092651370,233.0063018798828000,547.3574218750000000,6.3897480964660645,37.4277992248535160,51,107,104,78,78,15407,2147432429,2147798683,2147584155,2147836690,2147307840,2147448384,2147770971,2148281700,656,6,15,28280
1340096609,5804,10.1999998092651370,234.2066040039062500,548.0455932617188000,6.3679637908935550,37.3768806457519500,51,108,104,78,77,15412,2147432576,2147800731,2147585673,2147832347,2147306267,2147444781,2147771062,2148283227,526,6,15,45031
1340100209,5803,10.8999996185302730,234.8455963134765600,548.3920288085938000,6.3569998741149900,37.3497200012207000,51,107,104,79,76,15409,2147432182,2147801910,2147584164,2147833499,2147306422,2147446893,2147775369,2148283108,789,6,15,46587
1340103809,5803,10.5000000000000000,234.7826995849609400,549.0233764648438000,6.3370089530944820,37.3642311096191400,52,107,104,79,75,15411,2147430098,2147800548,2147587602,2147831853,2147303314,2147448000,2147769398,2148287241,812,6,15,19575
1340107409,5804,10.3000001907348630,235.3970031738281200,549.7175903320312000,6.3150272369384770,37.3448104858398440,51,108,104,79,76,15410,2147433526,2147799296,2147586093,2147835593,2147306130,2147447314,2147764790,2148283245,530,6,14,61882
1340111009,5805,10.5000000000000000,236.3878021240234400,550.1008300781250000,6.3028931617736820,37.3007583618164060,51,105,104,79,75,15409,2147432292,2147799707,2147586358,2147834011,2147305801,2147444105,2147768073,2148282806,3228,6,15,63323
1340114609,5804,10.8999996185302730,236.4149017333984400,549.5697021484375000,6.3197121620178220,37.2894401550293000,51,107,102,78,75,15406,2147429293,2147799725,2147586578,2147832704,2147303835,2147444443,2147769819,2148283401,3389,6,14,53888
1340118209,5802,10.3000001907348630,236.4902954101562500,549.3602294921875000,6.3263440132141110,37.2814903259277340,51,107,102,78,76,15407,2147433261,2147802331,2147587072,2147836800,2147304950,2147441846,2147769188,2148281673,3532,6,15,31564
1340121809,5803,1100.0000000000000000,235.6228027343750000,548.4664916992188000,6.3546409606933590,37.3102188110351560,51,107,103,78,76,15403,2147433069,2147798893,2147588516,2147834706,2147306523,2147448045,2147769115,2148283200,3520,6,15,30057
1340125409,5803,10.5000000000000000,236.3186950683593800,549.5477294921875000,6.3204078674316410,37.2935104370117200,51,108,103,79,76,15401,2147431725,2147801078,2147588105,2147831241,2147305590,2147445440,2147770633,2148282185,248,6,15,2116
1340129009,5806,1036.0000000000000000,235.9158020019531200,548.7017822265625000,6.3471908569335940,37.2996406555175800,52,108,103,79,76,15400,2147434377,2147803181,2147587300,2147833782,2147305097,2147444836,2147769892,2148280539,287,6,14,61282
1340132609,5806,1034.0000000000000000,235.0368957519531200,548.2470092773438000,6.3615880012512210,37.3367805480957000,51,108,103,80,76,15396,2147437184,2147803785,2147586742,2147834404,2147305709,2147445787,2147769078,2148279414,486,6,15,3953
1340136209,5805,10.0000000000000000,233.6132965087890600,547.9177246093750000,6.3720130920410160,37.4056892395019500,51,107,103,78,76,15399,2147432128,2147802998,2147586002,2147833664,2147311012,2147444059,2147772379,2148284315,169,6,15,52910
1340139809,5806,11.6000003814697270,235.4127960205078000,549.6137695312500000,6.3183140754699710,37.3419303894043000,51,108,103,78,77,15397,2147434651,2147801526,2147588260,2147833618,2147302921,2147450121,2147767945,2148283017,650,6,15,58922
1340143409,5804,10.3999996185302730,234.7337036132812500,548.0062255859375000,6.3692088127136230,37.3484497070312500,51,119,104,78,76,15396,2147434788,2147798811,2147583424,2147835099,2147309979,2147444032,2147772754,2148280594,241,6,15,23123
1340147009,5802,1102.0000000000000000,233.2328948974609400,548.4163818359375000,6.3562240600585940,37.4350090026855500,51,107,105,79,77,15392,2147430701,2147801334,2147586925,2147835538,2147307757,2147443949,2147766189,2148285522,3204,6,15,10902
1340150609,5804,11.6000003814697270,234.1136932373047000,549.0775756835938000,6.3352909088134770,37.4007110595703100,50,105,104,78,76,15391,2147432685,2147798409,2147586614,2147831396,2147305837,2147442523,2147767844,2148279670,428,6,15,30678
1340154209,5804,10.3999996185302730,234.1273956298828000,549.5137939453125000,6.3214821815490720,37.4073104858398440,52,106,104,79,75,15232,2147435730,2147798144,2147586002,2147835940,2147305133,2147443894,2147767625,2148280713,263,6,15,15070
1340157809,5801,11.6000003814697270,234.5895996093750000,548.9987182617188000,6.3377909660339355,37.3742599487304700,52,107,103,79,77,15230,2147428854,2147800246,2147586569,2147833481,2147305837,2147447058,2147771273,2148281389,44,6,15,28403
1340161409,5805,11.3999996185302730,234.3659057617187500,550.4000244140625000,6.2934150695800780,37.4113197326660160,52,108,103,79,77,15199,2147430902,2147800036,2147584969,2147834230,2147307894,2147451794,2147769554,2148281828,92,6,14,51126
1340165009,5804,10.6999998092651370,235.9710998535156200,551.2769165039062000,6.2656378746032715,37.3432617187500000,51,113,102,79,77,15196,2147435410,2147800978,2147586496,2147831789,2147308434,2147447451,2147768301,2148285266,246,6,14,29443
1340168609,5806,10.3000001907348630,235.4792938232422000,551.7487792968750000,6.2506871223449710,37.3774299621582000,52,106,104,79,77,15192,2147437074,2147800896,2147588150,2147834331,2147308041,2147446528,2147769782,2148283620,522,6,15,59214
1340172209,5805,1058.0000000000000000,235.4252929687500000,550.4998779296875000,6.2902531623840330,37.3580894470214840,51,106,104,81,77,15194,2147432210,2147802130,2147587437,2147832192,2147306002,2147448420,2147771584,2148285714,333,6,15,39091
1340175809,5802,11.3000001907348630,235.4716949462890600,549.8079223632812000,6.3121681213378910,37.3427391052246100,51,106,104,78,77,15193,2147430784,2147800182,2147587081,2147835209,2147306779,2147444873,2147771501,2148282596,2793,6,15,40384
1340179409,5805,11.8000001907348630,236.5052947998047000,550.0504150390625000,6.3044872283935550,37.2936592102050800,51,106,104,80,77,15190,2147433883,2147800731,2147585206,2147833225,2147307017,2147443958,2147769764,2148284690,3142,6,15,61538
1340183009,5805,1060.0000000000000000,235.3878021240234400,550.6638183593750000,6.2850589752197270,37.3627700805664060,51,107,107,79,77,15193,2147432402,2147797540,2147583542,2147836333,2147307245,2147444763,2147768548,2148283510,144,6,15,21916
1340186609,5805,1173.0000000000000000,236.1430053710937500,550.7593994140625000,6.2820320129394530,37.3251800537109400,51,107,103,77,76,15190,2147434377,2147802404,2147586715,2147834331,2147304804,2147444425,2147769289,2148281142,199,6,15,48019
1340190209,5803,11.6000003814697270,237.5346984863281200,550.7581787109375000,6.2820701599121090,37.2529182434082000,50,106,102,79,76,15171,2147432877,2147800182,2147586486,2147834358,2147305069,2147448941,2147769801,2148281947,3569,6,15,21456
1340193809,5804,1039.0000000000000000,236.9748992919922000,551.6162109375000000,6.2548890113830570,37.2970390319824200,51,107,103,79,76,15170,2147431972,2147800347,2147587501,2147834934,2147307382,2147448000,2147766756,2148280630,3491,6,15,43353
1340197409,5804,10.8999996185302730,236.9878997802734400,550.2344970703125000,6.2986578941345215,37.2716407775878900,50,106,103,78,76,15169,2147430189,2147798793,2147585179,2147836205,2147309622,2147447652,2147769133,2148279606,263,6,15,63998
1340201009,5806,11.3999996185302730,236.3616943359375000,550.2194213867188000,6.2991371154785160,37.3036308288574200,51,106,104,78,76,15169,2147434550,2147800932,2147585517,2147833097,2147306934,2147444827,2147769444,2148284068,586,6,14,17075
1340201157,5806,11.6000003814697270,236.3878021240234400,550.2260742187500000,6.2989249229431150,37.3025894165039060,51,116,103,78,76,15168,2147431414,2147798656,2147582893,2147834532,2147307602,2147447552,2147768347,2148281499,361,6,15,3292
